2016-044A

Last updated on Fri Jul 08 2016 09:37:07 GMT+0000 (Coordinated Universal Time)

1 41639U 16044A 16190.26189483 -.00003541 11197-4 00000+0 0 9992 2 41639 51.6418 313.1541 0008529 167.8783 281.7789 15.94957013 198
UTC large
Height (km)
Speed (km/s)
/
Latitude / Longitude
Inclination (degrees)
Orbital Period (minutes)
Azimuth
Elevation
Range (km)
Doppler Factor

Next 0 passes for location: London (51.5072 / 0.1276)

Sorry there are no passes over London.